Terminal Aerodrome Forecast
Issued by NWS

Home | Current Version | Previous Version | Text Only | Print | Product List | Glossary On
Versions: 1 2 3 4 5 6 7 8 9 10 11 12 13 14 15 16
000
FTUS44 KLIX 260500
TAFMCB
TAF
KMCB 260526Z 2606/2706 31003KT P6SM SKC
     FM261200 23004KT P6SM SKC
     FM261500 23008KT P6SM SKC
     FM261800 24012KT P6SM SKC
     FM270000 26008KT P6SM SKC
     FM270500 32006KT P6SM SKC=

USA.gov is the U.S. government's official web portal to all federal, state and local government web resources and services.